Regional Weather Roundup
Issued by NWS

Home | Current Version | Previous Version | Graphics & Text | Print | Product List | Glossary On
Versions: 1 2 3 4 5 6 7 8 9 10 11 12 13 14 15 16 17 18 19 20 21 22 23 24 25 26 27 28 29 30 31 32 33 34 35 36 37 38 39 40 41 42 43 44 45 46 47 48 49 50
773
ASUS43 KLSX 221857
RWRMO

WEATHER SUMMARY FOR MISSOURI
NATIONAL WEATHER SERVICE SPRINGFIELD MO
200 PM CDT SUN OCT 22 2017

NOTE: "FAIR" INDICATES FEW OR NO CLOUDS BELOW 12,000 FEET WITH NO
       SIGNIFICANT WEATHER AND/OR OBSTRUCTIONS TO VISIBILITY.
       CURRENT SKY AND/OR WEATHER CONDITIONS ARE NOT AVAILABLE FOR
       CHILLICOTHE AND FARMINGTON.

MOZ001>031-035>038-043-044-053-054-222000-
...NORTHERN AND WESTERN MISSOURI...

CITY           SKY/WX    TMP DP  RH WIND       PRES   REMARKS
KANSAS CTY INT PTSUNNY   62  43  49 NW8       30.11F
LEE`S SUMMIT   CLOUDY    60  45  57 NW10      30.11F
ST JOSEPH      CLOUDY    67  39  35 NW9G16    30.10F
CHILLICOTHE      N/A     61  44  53 VRB5      30.11F

$$
MOZ066>068-077>081-088>096-101>105-222000-
...SOUTHWEST MISSOURI...

CITY           SKY/WX    TMP DP  RH WIND       PRES   REMARKS
SPRINGFIELD    LGT RAIN  52  50  93 N13       30.11R
JOPLIN         CLOUDY    60  48  64 N10       30.14S
BRANSON        LGT RAIN  52  52 100 NW9G16    30.11R FOG

$$
MOZ032>034-039>042-045>050-055>058-069>072-222000-
...CENTRAL MISSOURI...

CITY           SKY/WX    TMP DP  RH WIND       PRES   REMARKS
COLUMBIA       NOT AVBL
JEFFERSON CITY CLOUDY    53  49  86 N7        30.09F
ROLLA          LGT RAIN  51  50  96 N15       30.09S FOG
SEDALIA        PTSUNNY   56  52  86 NW7       30.11F
WARRENSBURG    CLOUDY    59  45  58 NW8       30.10F

$$
MOZ051-052-059>065-222000-
...EAST CENTRAL MISSOURI...

CITY           SKY/WX    TMP DP  RH WIND       PRES   REMARKS
ST LOUIS INTL  CLOUDY    56  55  97 NW18G24   30.03R

$$
MOZ072>076-082>087-097>100-106>115-222000-
...SOUTH CENTRAL AND SOUTHEAST MISSOURI...

CITY           SKY/WX    TMP DP  RH WIND       PRES   REMARKS
CAPE GIRARDEAU CLOUDY    73  63  70 S13G23    29.96F
FARMINGTON     LGT RAIN  63  61  94 NW17      30.02R FOG
POPLAR BLUFF   CLOUDY    73  62  68 W9        29.96F
WEST PLAINS    CLOUDY    56  53  90 N6        30.06S

$$



USA.gov is the U.S. government's official web portal to all federal, state and local government web resources and services.